Weather History for Fort Myers Airport, FL

Change the Weather History Date:

Sunday, January 13, 2013

  Actual Average Record
Temperature  
Mean Temperature 72 °F -  
Max Temperature 82 °F 73 °F 86 °F (1989)
Min Temperature 63 °F 52 °F 28 °F (1981)
Cooling Degree Days 8    
Growing Degree Days 22 (Base 50)    
Moisture  
Dew Point 63 °F    
Average Humidity 76    
Maximum Humidity 93    
Minimum Humidity 49    
Precipitation  
Precipitation 0.00 in - - ()
Sea Level Pressure  
Sea Level Pressure 30.09 in    
Wind  
Wind Speed 6 mph (ESE)    
Max Wind Speed 12 mph    
Max Gust Speed 17 mph    
Visibility 10 miles    
Events      
Averages and records for this station are not official NWS values.
T = Trace of Precipitation, MM = Missing Value Source: NWS Daily Summary

Daily Weather History Graph

Daily Weather History Graph

Search for Another Location

Airport:

Trip Planner

Search our weather history database for the weather conditions in past years. The results will help you decide how hot, cold, wet, or windy it might be!

Date:

Astronomy

Jan. 13, 2013 Rise Set
Actual Time 7:16 AM EST 5:55 PM EST
Civil Twilight 6:51 AM EST 6:20 PM EST
Nautical Twilight 6:23 AM EST 6:48 PM EST
Astronomical Twilight 5:55 AM EST 7:16 PM EST
Moon 8:29 AM EST (1/13) 8:13 PM EST (1/13)
Length of Visible Light 11h 28m
Length of Day
10h 38m
Waxing Crescent, 5% of the Moon is Illuminated
Jan 13
Waxing Crescent
Jan 18
First Quarter
Jan 26
Full
Feb 3
Last Quarter
Feb 10
New

Hourly Weather History & Observations

Time (EST) Temp. Heat Index Dew Point Humidity Pressure Visibility Wind Dir Wind Speed Gust Speed Precip Events Conditions
12:53 AM 66.9 °F - 63.0 °F 87% 30.10 in 10.0 mi ESE 6.9 mph - N/A   Clear
1:53 AM 66.0 °F - 62.1 °F 87% 30.09 in 10.0 mi East 6.9 mph - N/A   Clear
2:53 AM 64.0 °F - 62.1 °F 93% 30.08 in 10.0 mi East 5.8 mph - N/A   Clear
3:53 AM 64.0 °F - 62.1 °F 93% 30.08 in 10.0 mi East 5.8 mph - N/A   Clear
4:53 AM 63.0 °F - 61.0 °F 93% 30.07 in 10.0 mi East 6.9 mph - N/A   Clear
5:53 AM 64.9 °F - 62.1 °F 90% 30.06 in 10.0 mi ESE 6.9 mph - N/A   Clear
6:53 AM 64.0 °F - 61.0 °F 90% 30.08 in 10.0 mi East 6.9 mph - N/A   Clear
7:53 AM 64.9 °F - 62.1 °F 90% 30.07 in 10.0 mi East 8.1 mph - N/A   Clear
8:53 AM 69.1 °F - 64.0 °F 84% 30.07 in 10.0 mi ESE 9.2 mph - N/A   Clear
9:53 AM 73.9 °F - 64.9 °F 73% 30.11 in 10.0 mi ESE 11.5 mph 17.3 mph N/A   Clear
10:53 AM 77.0 °F - 64.9 °F 66% 30.13 in 10.0 mi East 9.2 mph - N/A   Clear
11:53 AM 79.0 °F - 64.0 °F 60% 30.12 in 10.0 mi ESE 3.5 mph - N/A   Mostly Cloudy
12:53 PM 79.0 °F - 63.0 °F 58% 30.09 in 10.0 mi SE 8.1 mph - N/A   Scattered Clouds
1:53 PM 81.0 °F 81.7 °F 61.0 °F 50% 30.07 in 10.0 mi ESE 4.6 mph - N/A   Partly Cloudy
2:53 PM 82.0 °F 82.7 °F 61.0 °F 49% 30.06 in 10.0 mi SE 4.6 mph - N/A   Clear
3:53 PM 81.0 °F 81.7 °F 61.0 °F 50% 30.07 in 10.0 mi SE 4.6 mph - N/A   Scattered Clouds
4:53 PM 75.9 °F - 66.0 °F 71% 30.09 in 10.0 mi West 5.8 mph - N/A   Mostly Cloudy
5:53 PM 73.9 °F - 64.9 °F 73% 30.10 in 10.0 mi Calm Calm - N/A   Clear
6:53 PM 73.9 °F - 64.0 °F 71% 30.10 in 10.0 mi Calm Calm - N/A   Mostly Cloudy
7:53 PM 72.0 °F - 64.0 °F 76% 30.10 in 10.0 mi Calm Calm - N/A   Mostly Cloudy
8:53 PM 71.1 °F - 62.1 °F 73% 30.10 in 10.0 mi SE 5.8 mph - N/A   Partly Cloudy
9:53 PM 69.1 °F - 61.0 °F 75% 30.11 in 10.0 mi ESE 3.5 mph - N/A   Clear
10:53 PM 68.0 °F - 61.0 °F 78% 30.11 in 10.0 mi ESE 3.5 mph - N/A   Clear
11:53 PM 66.0 °F - 61.0 °F 84% 30.13 in 10.0 mi Calm Calm - N/A   Clear